Ketchikan, AK

4:59 PM AKST on February 20, 2019 (GMT -0900)
Ketchikan International

Weather History for PAKT - January, 2019

Change the Weather History Date:

Wednesday, January 9, 2019

  Actual Average Record
Temperature  
Mean Temperature 34 °F -  
Max Temperature 37 °F 36 °F 55 °F (1981)
Min Temperature 32 °F 24 °F 1 °F (1998)
Degree Days  
Heating Degree Days 30    
Moisture  
Dew Point 32 °F    
Average Humidity 93    
Maximum Humidity 100    
Minimum Humidity 73    
Precipitation  
Precipitation 0.38 in - - ()
Sea Level Pressure  
Sea Level Pressure 29.45 in    
Wind  
Wind Speed 2 mph (WNW)    
Max Wind Speed 7 mph    
Max Gust Speed -    
Visibility 4 miles    
Events Rain , Snow    
Averages and records for this station are not official NWS values.
T = Trace of Precipitation, MM = Missing Value Source: NWS Daily Summary

Daily Weather History Graph

Daily Weather History Graph

Search for Another Location

Airport or City:

Astronomy

Jan. 09, 2019 Rise Set
Actual Time 8:09 AM AKST 3:38 PM AKST
Civil Twilight 7:25 AM AKST 4:22 PM AKST
Nautical Twilight 6:38 AM AKST 5:10 PM AKST
Astronomical Twilight 5:54 AM AKST 5:54 PM AKST
Moon 10:09 AM AKST (1/9) 7:40 PM AKST (1/9)
Length of Visible Light 8h 57m
Length of Day
7h 28m
Waxing Crescent, 13% of the Moon is Illuminated
Jan 9
Waxing Crescent
Jan 13
First Quarter
Jan 20
Full
Jan 27
Last Quarter
Feb 4
New

Hourly Weather History & Observations

Time (AKST) Temp. Windchill Dew Point Humidity Pressure Visibility Wind Dir Wind Speed Gust Speed Precip Events Conditions
12:53 AM 34.0 °F 28.0 °F 26.1 °F 73% 29.57 in 10.0 mi WNW 6.9 mph - N/A   Overcast
1:43 AM 33.1 °F - 28.0 °F 82% 29.58 in 2.5 mi Calm Calm - 0.00 in Snow Light Snow
1:53 AM 32.0 °F 28.7 °F 28.0 °F 85% 29.58 in 1.2 mi West 3.5 mph - 0.00 in Snow Light Snow
2:13 AM 32.0 °F - 30.0 °F 92% 29.57 in 1.0 mi Calm Calm - 0.02 in Snow Light Snow
2:28 AM 32.0 °F 27.5 °F 30.0 °F 92% 29.57 in 3.0 mi NNW 4.6 mph - 0.02 in Snow Light Snow
2:50 AM 32.0 °F 28.7 °F 30.2 °F 93% 29.56 in 10.0 mi WNW 3.5 mph - 0.02 in   Overcast
2:53 AM 32.0 °F 28.7 °F 30.0 °F 92% 29.57 in 10.0 mi WNW 3.5 mph - 0.02 in   Overcast
3:53 AM 32.0 °F 28.7 °F 30.0 °F 92% 29.55 in 4.0 mi WNW 3.5 mph - 0.01 in Snow Light Snow
4:38 AM 32.0 °F 28.7 °F 30.0 °F 92% 29.52 in 2.5 mi WSW 3.5 mph - 0.00 in Snow Light Snow
4:48 AM 32.0 °F - 30.2 °F 93% 29.52 in 1.2 mi Calm Calm - 0.00 in Snow Light Snow
4:53 AM 32.0 °F - 30.0 °F 92% 29.53 in 1.5 mi Calm Calm - 0.01 in Snow Light Snow
5:53 AM 32.0 °F - 30.9 °F 96% 29.50 in 1.2 mi Calm Calm - 0.02 in Snow Light Snow
6:07 AM 32.0 °F - 30.2 °F 93% 29.49 in 3.0 mi Calm Calm - N/A Snow Light Snow
6:53 AM 32.0 °F - 30.2 °F 93% 29.49 in 3.0 mi Calm Calm - N/A Snow Light Snow
7:28 AM 32.0 °F - 32.0 °F 100% 29.48 in 3.0 mi Calm Calm - N/A Snow Light Snow
7:53 AM 33.8 °F - 32.0 °F 93% 29.48 in 3.0 mi Calm Calm - N/A Snow Light Snow
8:39 AM 32.0 °F 28.7 °F 30.2 °F 93% 29.47 in 1.5 mi West 3.5 mph - N/A Snow Light Snow
8:53 AM 33.8 °F - 32.0 °F 93% 29.47 in 1.5 mi Calm Calm - N/A Snow Light Snow
9:53 AM 33.8 °F - 32.0 °F 93% 29.47 in 3.0 mi Calm Calm - N/A Snow Light Snow
10:53 AM 33.8 °F - 32.0 °F 93% 29.45 in 3.0 mi Calm Calm - N/A Snow Light Snow
11:53 AM 33.8 °F 29.6 °F 32.0 °F 93% 29.42 in 4.0 mi NNW 4.6 mph - N/A Snow Light Snow
12:53 PM 33.8 °F 30.8 °F 32.0 °F 93% 29.40 in 4.0 mi NW 3.5 mph - N/A Snow Light Snow
1:53 PM 33.8 °F - 32.0 °F 93% 29.38 in 6.0 mi Calm Calm - N/A Rain Light Rain
2:53 PM 33.8 °F - 33.8 °F 100% 29.37 in 7.0 mi Calm Calm - N/A Rain Light Rain
3:53 PM 33.8 °F - 33.8 °F 100% 29.36 in 5.0 mi Calm Calm - N/A Rain Light Rain
4:53 PM 35.1 °F - 34.0 °F 96% 29.34 in 5.0 mi Calm Calm - 0.01 in Rain Light Rain
5:53 PM 35.1 °F 32.2 °F 34.0 °F 96% 29.34 in 7.0 mi SE 3.5 mph - 0.02 in Rain Light Rain
6:53 PM 36.0 °F - 35.1 °F 97% 29.34 in 7.0 mi Calm Calm - 0.06 in Rain Light Rain
7:53 PM 36.0 °F - 34.0 °F 93% 29.33 in 7.0 mi Calm Calm - 0.05 in Rain Light Rain
8:53 PM 35.6 °F - 35.6 °F 100% 29.32 in 8.0 mi Calm Calm - N/A Rain Light Rain
9:53 PM 36.0 °F - 35.1 °F 97% 29.33 in 7.0 mi Calm Calm - 0.04 in Rain Light Rain
10:33 PM 37.0 °F - 35.1 °F 93% 29.33 in 7.0 mi Calm Calm - 0.04 in Rain Light Rain
10:53 PM 37.0 °F - 35.1 °F 93% 29.34 in 5.0 mi Calm Calm - 0.06 in Rain Light Rain
11:53 PM 36.0 °F - 35.1 °F 97% 29.35 in 4.0 mi Calm Calm - 0.08 in Rain Light Rain